Cloud_Cover
100 100 100 100 100 100 100 100 100 100 100 100 100 98 98 16 0 0 0 0 0 0 0 2 28 23 8 81 100 62 99 100 100 100 100 100 100 100 92 100 6 95 7 1 20
100 100 100 100 100 100 100 100 100 100 100 100 100 90 100 100 0 0 0 0 0 0 0 2 25 44 100 100 100 91 98 100 100 100 100 100 100 100 8 45 10 77 71 12 25
100 100 100 100 100 99 100 100 100 100 100 100 100 100 29 53 0 0 0 0 0 0 0 0 4 96 100 100 100 98 97 100 100 100 100 92 81 96 36 14 46 86 88 3 5
100 100 100 100 99 75 100 86 81 100 100 100 100 88 13 47 0 0 0 0 0 0 0 5 4 14 100 100 100 100 100 92 100 100 100 100 100 97 38 84 67 100 85 1 0
100 100 100 100 100 100 98 100 24 75 100 100 100 19 3 0 0 0 0 0 0 0 0 3 5 5 100 100 100 100 100 100 100 100 100 100 100 100 77 95 82 100 24 4 0
100 100 100 100 100 100 100 100 100 97 100 35 100 68 0 0 0 0 0 0 0 0 0 2 5 5 100 100 100 100 100 100 100 100 100 99 96 100 97 75 30 43 66 38 0
100 100 100 100 100 100 100 100 100 100 98 87 61 11 0 0 0 0 0 0 0 0 0 0 0 5 58 100 83 100 100 100 100 100 86 98 100 100 96 85 74 5 5 92 0
100 100 100 100 100 100 100 100 100 100 100 92 4 5 0 0 0 0 0 0 0 0 0 0 0 4 4 100 100 100 100 100 100 100 100 100 100 100 100 95 60 39 18 44 42
100 100 100 100 100 100 100 98 96 98 96 13 4 0 0 0 0 0 0 0 0 0 0 0 0 2 4 87 100 100 100 100 100 100 100 100 100 100 100 100 100 14 96 7 3
97 100 100 100 100 100 34 1 99 56 6 0 0 0 0 0 0 0 0 0 0 0 0 0 0 0 0 6 100 100 100 100 100 100 100 99 100 100 100 98 99 37 93 21 2
100 100 100 100 100 76 14 4 0 0 0 0 0 0 0 0 0 0 0 0 0 0 0 0 0 0 1 5 5 5 100 100 100 100 100 88 67 100 100 100 78 32 52 4 5
100 84 100 100 100 100 67 98 95 51 4 0 0 0 0 0 0 0 0 0 0 0 0 0 0 1 45 15 5 68 90 100 100 100 100 100 91 100 100 92 90 100 21 5 52
56 100 100 100 96 50 97 100 100 100 100 32 2 0 0 0 0 0 0 5 4 0 0 0 0 0 51 57 29 98 36 100 100 100 100 100 100 100 100 100 88 76 8 56 91
25 70 100 100 36 13 98 100 100 100 100 100 12 6 0 0 0 0 0 22 5 2 0 0 0 0 1 92 97 100 61 98 100 100 100 100 100 100 100 100 100 100 97 69 11
54 100 100 97 9 11 75 99 100 100 100 100 100 56 5 0 2 0 4 3 64 5 0 0 0 0 0 64 99 86 99 91 78 100 100 100 100 100 100 96 84 90 96 5 73
26 100 98 30 7 86 98 78 100 100 100 100 100 80 5 17 46 5 5 5 6 57 0 0 0 0 0 28 100 100 36 69 94 96 100 100 100 100 100 100 91 100 100 100 67
82 100 96 0 0 4 100 100 98 100 100 100 100 64 57 100 100 88 5 85 53 41 3 0 0 0 0 0 83 100 100 21 60 98 100 100 100 100 100 100 100 98 98 94 97
100 60 15 0 0 4 97 100 100 100 100 100 100 65 6 100 98 81 100 100 100 100 89 0 0 0 0 0 0 30 100 90 100 99 100 100 100 100 100 100 100 100 100 100 99
23 0 0 0 0 5 75 100 100 100 100 100 100 39 5 29 100 54 60 100 100 100 100 7 0 0 0 0 0 0 0 13 79 5 44 100 100 100 100 100 100 100 100 100 100
5 0 0 0 0 5 14 100 99 100 100 100 100 92 63 6 1 95 34 34 86 100 100 100 7 0 0 0 0 0 0 0 5 46 23 100 100 100 100 100 100 100 100 100 100
4 0 0 0 5 5 72 95 100 86 92 96 99 100 91 12 5 0 72 36 11 98 100 100 97 3 0 0 0 0 0 0 1 3 29 39 100 100 100 100 100 100 100 87 100
5 5 0 0 3 46 100 99 91 56 5 5 5 5 0 5 5 5 5 93 29 5 63 99 100 99 1 0 0 0 0 0 0 0 0 2 34 100 100 100 100 100 100 100 100
5 5 0 0 5 87 9 87 86 48 26 5 2 0 2 5 43 93 36 59 77 9 54 63 100 100 97 2 0 0 0 0 0 0 0 0 0 63 100 100 100 100 100 100 100
5 5 0 0 0 0 1 1 5 5 4 0 0 0 0 5 24 80 44 47 90 32 5 57 99 100 100 100 9 0 0 0 0 0 2 0 0 55 58 100 100 100 100 100 100
5 5 0 0 0 0 2 1 4 0 5 0 0 0 0 4 79 99 45 14 82 71 5 6 92 100 100 49 100 10 0 0 0 0 0 0 0 0 73 100 100 100 100 100 100
5 4 0 5 0 4 21 5 0 0 0 0 0 0 5 5 38 48 26 23 5 89 47 5 6 100 100 100 97 100 38 4 0 0 0 0 0 0 90 100 100 100 100 100 100
5 5 5 5 5 5 24 5 5 5 0 0 0 0 0 8 13 92 68 100 99 92 44 90 48 90 85 74 88 71 44 16 5 0 0 0 0 2 97 82 96 100 100 100 100